KN4MGS Weather Reports


time (UTC)temp
F
wind
direction
speed
knots
gust
knots
rain 1hr
in
rain 24hr
in
rain mn
in
humidity
%
barometer
mb
20260906071707 69 168 0.0 0.0 0.00 0.00 0.00 99 1014.9
20260906071207 69 172 0.0 0.0 0.00 0.00 0.00 99 1015.0
20260906070703 69 139 0.0 0.0 0.00 0.00 0.00 99 1014.9
20260906070159 69 111 0.9 0.9 0.00 0.00 0.00 99 1014.8
20260906065658 69 156 0.0 0.0 0.00 0.00 0.00 99 1015.1
20260906065154 69 165 0.0 0.0 0.00 0.00 0.00 99 1015.2
20260906064649 69 160 0.0 0.0 0.00 0.00 0.00 99 1015.3
20260906064144 69 159 0.0 0.0 0.00 0.00 0.00 99 1015.4
20260906063639 69 156 0.0 0.0 0.00 0.00 0.00 99 1015.4
20260906063135 69 167 0.0 0.0 0.00 0.00 0.00 99 1015.3
20260906062631 69 180 0.0 0.0 0.00 0.00 0.00 99 1015.4
20260906062129 69 170 0.0 0.0 0.00 0.00 0.00 99 1015.5
20260906061626 69 173 0.0 0.0 0.00 0.00 0.00 99 1015.4
20260906061125 69 169 0.0 0.0 0.00 0.00 0.00 99 1015.8
20260906060622 69 155 0.0 0.0 0.00 0.00 0.00 99 1015.7
20260906060119 70 161 0.0 0.0 0.00 0.00 0.00 99 1015.8
20260906055615 70 173 0.0 0.0 0.00 0.00 0.00 99 1015.9
20260906055109 70 166 0.0 0.0 0.00 0.00 0.00 99 1016.1
20260906054604 70 179 0.0 0.9 0.00 0.00 0.00 99 1016.0
20260906054100 70 173 0.0 0.0 0.00 0.00 0.00 99 1015.8
20260906053556 70 167 0.0 0.0 0.00 0.00 0.00 99 1015.9
20260906053051 70 168 0.0 0.0 0.00 0.00 0.00 99 1015.8
20260906052546 70 169 0.0 0.0 0.00 0.00 0.00 99 1016.3
20260906052044 70 162 0.0 0.0 0.00 0.00 0.00 99 1016.0
20260906051539 70 170 0.0 0.0 0.00 0.00 0.00 99 1016.1
20260906051034 70 171 0.0 0.0 0.00 0.00 0.00 99 1016.2
20260906050529 70 161 0.0 0.0 0.00 0.00 0.00 99 1016.3
20260906050024 70 156 0.0 0.0 0.00 0.00 0.00 99 1016.5
20260906045522 71 169 0.0 0.0 0.00 0.00 0.00 99 1016.5
20260906045018 71 170 0.0 0.0 0.00 0.00 0.00 99 1016.3
20260906044514 70 171 0.0 0.0 0.00 0.00 0.00 99 1016.3
20260906044009 71 175 0.0 0.0 0.00 0.00 0.00 99 1016.4
20260906043505 70 176 0.0 0.0 0.00 0.00 0.00 99 1016.4
20260906043001 71 172 0.0 0.0 0.00 0.00 0.00 99 1016.3
20260906042459 70 169 0.0 0.0 0.00 0.00 0.00 99 1016.5
20260906041959 70 180 0.0 0.0 0.00 0.00 0.00 99 1016.6
20260906041456 71 170 0.0 0.0 0.00 0.00 0.00 99 1016.5
20260906040955 71 174 0.0 0.0 0.00 0.00 0.00 99 1016.5
20260906040450 71 158 0.0 0.0 0.00 0.00 0.00 99 1016.5
20260906035946 71 169 0.0 0.0 0.00 0.00 0.00 99 1016.4
20260906035441 71 168 0.0 0.0 0.00 0.00 0.00 99 1016.4
20260906034937 71 172 0.0 0.0 0.00 0.00 0.00 99 1016.6
20260906034431 71 155 0.0 0.0 0.00 0.00 0.00 99 1016.5
20260906033927 71 170 0.0 0.0 0.00 0.00 0.00 99 1016.8
20260906033427 71 170 0.0 0.0 0.00 0.00 0.00 99 1016.4
20260906032922 71 160 0.0 0.0 0.00 0.00 0.00 99 1016.4
20260906032418 71 134 0.9 0.9 0.00 0.00 0.00 99 1016.6
20260906031913 71 159 0.0 0.0 0.00 0.00 0.00 99 1016.9
20260906031408 71 178 0.0 0.0 0.00 0.00 0.00 99 1016.6
20260906030903 72 173 0.0 0.0 0.00 0.00 0.00 99 1016.7
20260906030358 71 172 0.0 0.0 0.00 0.00 0.00 99 1017.0
20260906025853 72 186 0.0 0.9 0.00 0.00 0.00 99 1016.6
20260906025347 72 170 0.0 0.0 0.00 0.00 0.00 99 1016.6
20260906024846 72 150 0.0 0.9 0.00 0.00 0.00 99 1016.3
20260906024345 72 164 0.0 0.0 0.00 0.00 0.00 99 1016.3
20260906023840 72 159 0.0 0.0 0.00 0.00 0.00 99 1016.1
20260906023337 72 173 0.0 0.0 0.00 0.00 0.00 99 1016.4
20260906022832 72 175 0.0 0.0 0.00 0.00 0.00 99 1016.3
20260906022327 72 171 0.0 0.0 0.00 0.00 0.00 99 1016.4
20260906021822 72 153 0.0 0.0 0.00 0.00 0.00 99 1016.4
20260906021321 72 169 0.0 0.0 0.00 0.00 0.00 99 1016.2
20260906020816 72 156 0.0 0.0 0.00 0.00 0.00 99 1016.1
20260906020315 72 171 0.0 0.0 0.00 0.00 0.00 99 1016.0
20260906015810 72 180 0.0 0.0 0.00 0.00 0.00 99 1016.0
20260906015308 73 170 0.0 0.0 0.00 0.00 0.00 99 1015.8
20260906014803 73 184 0.9 0.9 0.00 0.00 0.00 99 1016.0
20260906014259 73 171 0.0 0.0 0.00 0.00 0.00 99 1015.9
20260906013754 73 172 0.0 0.0 0.00 0.00 0.00 99 1016.2
20260906013249 73 163 0.0 0.0 0.00 0.00 0.00 99 1016.0
20260906012745 73 158 0.0 0.0 0.00 0.00 0.00 99 1016.1
20260906012240 73 163 0.0 0.0 0.00 0.00 0.00 99 1015.9
20260906011734 73 152 0.0 0.0 0.00 0.00 0.00 99 1015.9
20260906011229 74 173 0.0 0.0 0.00 0.00 0.00 99 1015.8
20260906010724 74 182 0.9 0.9 0.00 0.00 0.00 98 1015.5
20260906010221 74 176 0.0 0.0 0.00 0.00 0.00 97 1015.6
20260906005721 75 159 0.0 0.0 0.00 0.00 0.00 97 1015.6
20260906005215 75 170 0.0 0.0 0.00 0.00 0.00 97 1015.7
20260906004714 75 173 0.0 0.0 0.00 0.00 0.00 97 1015.8
20260906004209 75 170 0.0 0.0 0.00 0.00 0.00 97 1015.6
20260906003704 75 174 0.0 0.0 0.00 0.00 0.00 96 1015.6
20260906003200 75 175 0.0 0.0 0.00 0.00 0.00 96 1015.5
20260906002700 76 171 0.0 0.0 0.00 0.00 0.00 95 1015.7
20260906002154 76 169 0.0 0.0 0.00 0.00 0.00 95 1015.6
20260906001650 76 170 0.0 0.0 0.00 0.00 0.00 94 1015.8
20260906001149 76 172 0.0 0.9 0.00 0.00 0.00 94 1015.4
20260906000645 77 157 0.0 0.0 0.00 0.00 0.00 92 1015.3
20260906000141 77 170 0.0 0.0 0.00 0.00 0.00 93 1015.4
20260905235639 77 165 0.0 0.9 0.00 0.00 0.00 92 1015.2
20260905235135 78 176 0.0 0.0 0.00 0.00 0.00 91 1015.0
20260905234630 78 173 0.0 0.0 0.00 0.00 0.00 91 1015.0
20260905234126 79 180 0.9 0.9 0.00 0.00 0.00 89 1014.9
20260905233620 79 173 0.0 0.9 0.00 0.00 0.00 88 1014.6
20260905233114 80 186 0.9 0.9 0.00 0.00 0.00 87 1014.9
20260905232610 80 178 0.0 0.9 0.00 0.00 0.00 85 1014.7
20260905232106 82 185 0.9 0.9 0.00 0.00 0.00 83 1014.7
20260905231600 83 177 0.0 0.9 0.00 0.00 0.00 81 1014.8
20260905231057 84 173 0.0 0.9 0.00 0.00 0.00 76 1014.7
20260905230556 85 167 0.0 0.9 0.00 0.00 0.00 71 1015.0
20260905230055 86 216 0.0 0.9 0.00 0.00 0.00 70 1014.7
20260905225555 85 196 0.9 1.7 0.00 0.00 0.00 71 1014.9
20260905225049 86 322 0.9 1.7 0.00 0.00 0.00 70 1015.0
20260905224544 87 220 0.9 2.6 0.00 0.00 0.00 68 1015.0
20260905224043 87 167 0.0 0.9 0.00 0.00 0.00 68 1015.1
20260905223541 86 163 0.9 2.6 0.00 0.00 0.00 70 1014.8
20260905223037 86 359 1.7 1.7 0.00 0.00 0.00 70 1014.8
20260905222537 86 72 0.9 1.7 0.00 0.00 0.00 68 1014.7
20260905222032 86 133 0.0 1.7 0.00 0.00 0.00 69 1014.8
20260905221529 85 147 0.0 1.7 0.00 0.00 0.00 70 1014.7
20260905221024 84 191 0.0 0.0 0.00 0.00 0.00 73 1014.9
20260905220520 83 234 0.9 1.7 0.00 0.00 0.00 73 1015.0
20260905220016 84 210 0.9 0.9 0.00 0.00 0.00 72 1015.0
20260905215510 84 73 0.9 2.6 0.00 0.00 0.00 74 1015.0
20260905215006 84 174 0.0 1.7 0.00 0.00 0.00 74 1015.0
20260905214502 85 175 0.0 0.9 0.00 0.00 0.00 74 1015.3
20260905214002 84 205 0.9 2.6 0.00 0.00 0.00 72 1015.4
20260905213458 83 232 0.9 1.7 0.00 0.00 0.00 74 1015.1
20260905212953 83 177 0.9 0.9 0.00 0.00 0.00 74 1015.3
20260905212447 83 174 0.0 0.9 0.00 0.00 0.00 75 1015.2
20260905211947 82 172 0.9 1.7 0.00 0.00 0.00 75 1015.5
20260905211442 82 175 1.7 1.7 0.00 0.00 0.00 76 1015.8
20260905210938 81 173 0.0 2.6 0.00 0.00 0.00 78 1015.7
20260905210433 81 262 0.9 1.7 0.00 0.00 0.00 79 1015.9
20260905205932 81 207 2.6 2.6 0.00 0.00 0.00 84 1015.7
20260905205427 81 192 0.9 0.9 0.00 0.00 0.00 81 1015.9
20260905204926 81 172 0.0 1.7 0.00 0.00 0.00 79 1015.7
20260905204422 80 163 0.0 1.7 0.00 0.00 0.00 80 1015.7
20260905203921 80 189 0.9 2.6 0.00 0.00 0.00 80 1015.8
20260905203416 80 155 0.0 0.9 0.00 0.00 0.00 80 1015.5
20260905202912 80 158 0.0 1.7 0.00 0.00 0.00 81 1015.5
20260905202407 80 94 0.9 1.7 0.00 0.00 0.00 81 1015.6
20260905201902 81 135 0.9 2.6 0.00 0.00 0.00 80 1015.4
20260905201358 81 109 1.7 1.7 0.00 0.00 0.00 78 1015.3
20260905200852 81 134 0.9 4.3 0.00 0.00 0.00 76 1015.5
20260905200348 82 125 0.0 2.6 0.00 0.00 0.00 76 1015.8
20260905195846 82 58 2.6 2.6 0.00 0.00 0.00 76 1016.1
20260905195341 82 236 0.0 4.3 0.00 0.00 0.00 74 1016.4
20260905194837 83 218 0.0 4.3 0.00 0.00 0.00 73 1016.4
20260905194337 83 189 0.9 0.9 0.00 0.00 0.00 73 1016.2
20260905193836 84 98 1.7 6.1 0.00 0.00 0.00 72 1016.1
20260905193331 85 25 2.6 6.1 0.00 0.00 0.00 71 1015.7
20260905192827 86 24 1.7 4.3 0.00 0.00 0.00 69 1015.4
20260905192322 87 334 2.6 5.2 0.00 0.00 0.00 67 1015.3
20260905191821 88 62 1.7 1.7 0.00 0.00 0.00 65 1014.9
20260905191320 88 181 0.9 0.9 0.00 0.00 0.00 64 1014.9
20260905190819 88 212 0.9 0.9 0.00 0.00 0.00 64 1014.6
20260905190318 89 147 0.0 7.0 0.00 0.00 0.00 64 1014.5
20260905185812 91 27 6.1 8.7 0.00 0.00 0.00 61 1014.6
20260905185307 92 4 3.5 6.1 0.00 0.00 0.00 61 1014.8
20260905184806 95 320 2.6 7.8 0.00 0.00 0.00 59 1015.1
20260905184300 98 359 2.6 2.6 0.00 0.00 0.00 55 1015.0
20260905183759 98 78 0.9 4.3 0.00 0.00 0.00 56 1014.9
20260905183254 98 223 1.7 4.3 0.00 0.00 0.00 59 1015.1
20260905182754 99 341 3.5 4.3 0.00 0.00 0.00 56 1014.9
20260905182254 97 232 4.3 6.1 0.00 0.00 0.00 57 1015.3
20260905181749 97 323 0.9 1.7 0.00 0.00 0.00 56 1015.2
20260905181248 99 356 2.6 2.6 0.00 0.00 0.00 56 1015.5
20260905180743 98 102 2.6 4.3 0.00 0.00 0.00 57 1015.3
20260905180238 97 211 2.6 5.2 0.00 0.00 0.00 56 1015.7
20260905175733 97 95 0.9 5.2 0.00 0.00 0.00 55 1015.4
20260905175227 98 236 0.9 7.0 0.00 0.00 0.00 54 1015.8
20260905174722 97 46 0.9 2.6 0.00 0.00 0.00 55 1016.0
20260905174218 99 351 2.6 4.3 0.00 0.00 0.00 55 1016.1
20260905173708 97 251 0.9 4.3 0.00 0.00 0.00 58 1016.2
20260905173204 96 217 0.9 2.6 0.00 0.00 0.00 63 1016.1
20260905172703 97 21 0.9 2.6 0.00 0.00 0.00 61 1016.5
20260905172157 97 331 2.6 2.6 0.00 0.00 0.00 60 1016.4
20260905171653 97 92 1.7 2.6 0.00 0.00 0.00 60 1016.5
20260905171149 96 259 4.3 6.1 0.00 0.00 0.00 62 1016.6
20260905170646 97 206 0.9 4.3 0.00 0.00 0.00 58 1016.4
20260905170140 96 262 1.7 5.2 0.00 0.00 0.00 62 1016.7
20260905165635 97 208 0.9 2.6 0.00 0.00 0.00 59 1016.8
20260905165130 97 18 2.6 2.6 0.00 0.00 0.00 60 1016.7
20260905164625 96 209 2.6 4.3 0.00 0.00 0.00 60 1016.9
20260905164124 96 172 1.7 2.6 0.00 0.00 0.00 62 1017.1
20260905163621 96 340 1.7 2.6 0.00 0.00 0.00 63 1017.1
20260905163117 96 210 2.6 2.6 0.00 0.00 0.00 64 1017.1
20260905162613 95 188 0.9 1.7 0.00 0.00 0.00 65 1016.9
20260905162112 95 58 1.7 2.6 0.00 0.00 0.00 66 1017.3
20260905161612 95 163 0.0 2.6 0.00 0.00 0.00 67 1017.2
20260905161109 94 89 0.9 4.3 0.00 0.00 0.00 67 1017.2
20260905160609 94 134 0.9 2.6 0.00 0.00 0.00 65 1017.3
20260905155558 95 133 0.9 1.7 0.00 0.00 0.00 68 1017.4
20260905155056 92 123 1.7 2.6 0.00 0.00 0.00 72 1017.2
20260905154551 93 235 0.9 2.6 0.00 0.00 0.00 72 1017.5
20260905154047 93 235 1.7 2.6 0.00 0.00 0.00 74 1017.6
20260905153543 92 149 0.0 2.6 0.00 0.00 0.00 72 1017.3
20260905153043 93 177 0.9 4.3 0.00 0.00 0.00 71 1017.2
20260905152537 94 289 1.7 2.6 0.00 0.00 0.00 72 1017.3
20260905152033 93 87 1.7 4.3 0.00 0.00 0.00 73 1017.3
20260905151528 93 239 2.6 4.3 0.00 0.00 0.00 72 1017.5
20260905151023 92 172 0.9 1.7 0.00 0.00 0.00 73 1017.5
20260905150518 92 205 0.9 4.3 0.00 0.00 0.00 74 1017.5
20260905150015 93 188 2.6 2.6 0.00 0.00 0.00 73 1017.7
20260905145509 92 182 0.9 4.3 0.00 0.00 0.00 73 1017.7
20260905145003 92 188 0.9 0.9 0.00 0.00 0.00 75 1017.8
20260905144458 92 195 1.7 1.7 0.00 0.00 0.00 74 1017.3
20260905143957 91 161 0.0 1.7 0.00 0.00 0.00 76 1017.7
20260905143456 90 174 0.9 1.7 0.00 0.00 0.00 74 1017.8
20260905142951 88 216 1.7 1.7 0.00 0.00 0.00 78 1017.7
20260905142450 89 206 2.6 4.3 0.00 0.00 0.00 80 1017.8
20260905141946 89 149 0.9 0.9 0.00 0.00 0.00 76 1017.7
20260905141440 88 169 0.0 1.7 0.00 0.00 0.00 80 1017.7
20260905140937 88 227 1.7 2.6 0.00 0.00 0.00 81 1017.6
20260905140432 89 174 0.0 1.7 0.00 0.00 0.00 80 1017.5
20260905135930 87 71 0.9 0.9 0.00 0.00 0.00 81 1017.6
20260905135426 89 185 0.9 1.7 0.00 0.00 0.00 79 1017.9
20260905134921 87 155 0.0 1.7 0.00 0.00 0.00 83 1018.0
20260905134420 86 260 2.6 2.6 0.00 0.00 0.00 83 1018.0
20260905133914 85 131 0.0 0.9 0.00 0.00 0.00 86 1017.7
20260905133409 84 266 0.9 1.7 0.00 0.00 0.00 86 1017.8
20260905132909 85 191 1.7 1.7 0.00 0.00 0.00 86 1017.9
20260905132404 84 204 0.9 1.7 0.00 0.00 0.00 89 1018.1
20260905131859 85 194 0.9 1.7 0.00 0.00 0.00 88 1018.0
20260905131355 85 201 0.9 0.9 0.00 0.00 0.00 87 1018.0
20260905130849 84 173 0.0 0.9 0.00 0.00 0.00 90 1018.0
20260905130348 82 173 0.9 1.7 0.00 0.00 0.00 92 1018.0
20260905125843 82 172 0.0 0.0 0.00 0.00 0.00 92 1018.3
20260905125338 81 159 0.0 0.9 0.00 0.00 0.00 95 1018.1
20260905124834 79 208 1.7 1.7 0.00 0.00 0.00 97 1018.1
20260905124331 79 183 0.9 1.7 0.00 0.00 0.00 99 1018.2
20260905123830 77 171 0.0 0.9 0.00 0.00 0.00 99 1018.0
20260905123327 76 169 0.0 0.9 0.00 0.00 0.00 99 1017.9
20260905122827 77 177 0.0 0.0 0.00 0.00 0.00 99 1018.1
20260905122326 76 167 0.0 0.0 0.00 0.00 0.00 99 1018.1
20260905121822 75 164 0.0 0.0 0.00 0.00 0.00 99 1018.1
20260905121319 74 170 0.0 0.0 0.00 0.00 0.00 99 1018.4
20260905120817 73 163 0.0 0.0 0.00 0.00 0.00 99 1018.2
20260905120312 73 169 0.0 0.0 0.00 0.00 0.00 99 1018.0
20260905115806 73 183 0.0 0.9 0.00 0.00 0.00 99 1018.1
20260905115306 73 172 0.0 0.0 0.00 0.00 0.00 99 1018.1
20260905114800 73 169 0.0 0.0 0.00 0.00 0.00 99 1017.8
20260905114259 72 171 0.0 0.0 0.00 0.00 0.00 99 1017.9
20260905113759 72 170 0.0 0.0 0.00 0.00 0.00 99 1017.6
20260905113255 72 172 0.0 0.0 0.00 0.00 0.00 99 1017.8
20260905112749 72 172 0.0 0.0 0.00 0.00 0.00 99 1017.6
20260905112244 72 171 0.0 0.0 0.00 0.00 0.00 99 1017.7
20260905111739 72 171 0.0 0.0 0.00 0.00 0.00 99 1017.5
20260905111233 72 172 0.0 0.0 0.00 0.00 0.00 99 1017.2
20260905110733 72 171 0.0 0.0 0.00 0.00 0.00 99 1017.3
20260905110227 72 165 0.0 0.0 0.00 0.00 0.00 99 1017.2
20260905105723 72 174 0.0 0.0 0.00 0.00 0.00 99 1017.0
20260905105222 72 180 0.0 0.9 0.00 0.00 0.00 99 1017.2
20260905104716 72 165 0.0 0.0 0.00 0.00 0.00 99 1017.1
20260905104213 72 161 0.0 0.0 0.00 0.00 0.00 99 1016.9
20260905103707 72 164 0.0 0.0 0.00 0.00 0.00 99 1016.9
20260905103203 72 171 0.0 0.0 0.00 0.00 0.00 99 1016.7
20260905102659 72 171 0.0 0.0 0.00 0.00 0.00 99 1016.7
20260905102155 72 171 0.0 0.0 0.00 0.00 0.00 99 1016.7
20260905101653 72 171 0.0 0.0 0.00 0.00 0.00 99 1017.0
20260905101152 72 168 0.0 0.0 0.00 0.00 0.00 99 1016.9
20260905100648 72 168 0.0 0.0 0.00 0.00 0.00 99 1016.7
20260905100143 73 162 0.0 0.0 0.00 0.00 0.00 99 1016.7
20260905095642 73 154 0.0 0.0 0.00 0.00 0.00 99 1016.9
20260905095137 73 164 0.0 0.0 0.00 0.00 0.00 99 1016.9
20260905094633 73 171 0.0 0.0 0.00 0.00 0.00 99 1016.3
20260905094132 73 169 0.0 0.0 0.00 0.00 0.00 99 1016.7
20260905093626 73 170 0.0 0.0 0.00 0.00 0.00 99 1016.8
20260905093122 73 156 0.0 0.0 0.00 0.00 0.00 99 1016.7
20260905092617 73 165 0.0 0.0 0.00 0.00 0.00 99 1016.7
20260905092113 73 165 0.0 0.0 0.00 0.00 0.00 99 1016.9
20260905091612 73 169 0.0 0.0 0.00 0.00 0.00 99 1016.8
20260905091107 73 161 0.0 0.0 0.00 0.00 0.00 99 1016.7
20260905090607 73 162 0.0 0.0 0.00 0.00 0.00 99 1016.7
20260905085601 73 171 0.0 0.0 0.00 0.00 0.00 99 1016.7
20260905085056 73 171 0.0 0.0 0.00 0.00 0.00 99 1016.7
20260905084556 73 171 0.0 0.0 0.00 0.00 0.00 99 1016.6
20260905084051 74 169 0.0 0.0 0.00 0.00 0.00 99 1016.9
20260905083545 74 169 0.0 0.0 0.00 0.00 0.00 99 1016.9
20260905083042 74 176 0.0 0.0 0.00 0.00 0.00 99 1017.1
20260905082537 74 171 0.0 0.0 0.00 0.00 0.00 99 1016.7
20260905082033 74 169 0.0 0.0 0.00 0.00 0.00 99 1017.0
20260905081532 74 166 0.0 0.0 0.00 0.00 0.00 99 1017.0
20260905081027 74 168 0.0 0.0 0.00 0.00 0.00 99 1017.2
20260905080526 74 162 0.0 0.0 0.00 0.00 0.00 99 1017.1
20260905080022 74 169 0.0 0.9 0.00 0.00 0.00 99 1017.1
20260905075509 74 167 0.0 0.0 0.00 0.00 0.00 99 1017.3
20260905075008 74 184 0.0 0.0 0.00 0.00 0.00 99 1017.3
20260905074458 74 166 0.0 0.0 0.00 0.00 0.00 99 1017.5
20260905073954 74 175 0.0 0.0 0.00 0.00 0.00 99 1017.4
20260905073448 74 165 0.0 0.0 0.00 0.00 0.00 99 1017.4
20260905072943 75 174 0.0 0.9 0.00 0.00 0.00 99 1017.3
20260905072438 75 175 0.0 0.0 0.00 0.00 0.00 99 1017.3